{"data":{"norad_id":64284,"intl_designator":"2025-121B","name":"HULIANWANG DIGUI-31","alt_names":[],"object_type":"PAYLOAD","status":"ACTIVE","operator":null,"country":"PRC","launch_date":"2025-06-05","launch_site_code":"TAISC","launch_vehicle":null,"mission":null,"orbit_class":"UNKNOWN","rcs_meters":null,"size_class":null,"mass_kg":null,"dimensions":null,"purposes":[],"wikipedia_slug":null,"has_3d_model":false,"image_url":null,"decayed_at":null,"tle_current":{"epoch":"2026-05-25T02:50:44.085984Z","epoch_age_seconds":58675,"freshness":"FRESH","line1":"1 64284U 25121B   26145.11856581  .00000026  00000+0  26734-4 0  9991","line2":"2 64284  86.5029  21.4120 0001716  88.5012 271.6318 13.24412034 47109","mean_motion":13.24412034,"eccentricity":0.0001716,"inclination_deg":86.5029,"raan_deg":21.412,"arg_perigee_deg":88.5012,"mean_anomaly_deg":271.6318,"bstar":2.6734e-5,"rev_number":4710,"period_min":108.72749288232,"perigee_km":1166.6195571574,"apogee_km":1169.2093620183,"semimajor_km":7546.0514595879,"source":"CELESTRAK","updated_at":"2026-05-25T13:38:04.385780Z"}}}